Location: Borgo
(42.3939°N, 9.2791°E)
Time: 18:24:32
(UTC+00:00)

COSMOS 2406 - Pass Details

Date: 24 January 2021
Orbit: 841 x 865 km, 71.0° (Epoch: 02 March)

Event Time Altitude Azimuth Distance (km) Brightness Sun altitude
Rises 18:23:59 0° 337° (NNW) 3,456 6.6 -21.6°
Reaches altitude 10° 18:26:29 10° 339° (NNW) 2,514 5.8 -22.0°
Maximum altitude 18:32:15 71° 64° (ENE) 911 3.1 -23.1°
Enters shadow 18:34:33 37° 139° (SE) 1,302 3.9 -23.5°
